Milford, UT

9:55 AM MDT on September 26, 2016 (GMT -0600)
Milford Municipal

Weather History for KMLF - August, 2013

Change the Weather History Date:

Saturday, August 24, 2013

  Actual Average Record
Temperature  
Mean Temperature 64 °F -  
Max Temperature 75 °F 88 °F 100 °F (2011)
Min Temperature 54 °F 52 °F 46 °F (2002)
Growing Degree Days 14 (Base 50)    
Moisture  
Dew Point 52 °F    
Average Humidity 67    
Maximum Humidity 93    
Minimum Humidity 27    
Precipitation  
Precipitation 0.08 in - - ()
Sea Level Pressure  
Sea Level Pressure 29.95 in    
Wind  
Wind Speed 8 mph (SSW)    
Max Wind Speed 25 mph    
Max Gust Speed 32 mph    
Visibility 10 miles    
Events Rain    
Averages and records for this station are not official NWS values.
T = Trace of Precipitation, MM = Missing Value Source: NWS Daily Summary

Daily Weather History Graph

Daily Weather History Graph

Search for Another Location

Airport or City:

Trip Planner

Search our weather history database for the weather conditions in past years. The results will help you decide how hot, cold, wet, or windy it might be!

Date:

Astronomy

Aug. 24, 2013 Rise Set
Actual Time 6:54 AM MDT 8:13 PM MDT
Civil Twilight 6:27 AM MDT 8:40 PM MDT
Nautical Twilight 5:54 AM MDT 9:13 PM MDT
Astronomical Twilight 5:19 AM MDT 9:48 PM MDT
Moon 10:14 PM MDT (8/24) 10:54 AM MDT (8/24)
Length of Visible Light 14h 13m
Length of Day
13h 18m
Waning Gibbous, 84% of the Moon is Illuminated
Aug 24
Waning Gibbous
Aug 28
Last Quarter
Sep 5
New
Sep 12
First Quarter
Sep 19
Full

Hourly Weather History & Observations

Time (MDT) Temp. Dew Point Humidity Pressure Visibility Wind Dir Wind Speed Gust Speed Precip Events Conditions
12:52 AM 60.1 °F 54.0 °F 80% 29.93 in 10.0 mi SSW 10.4 mph - N/A   Clear
1:52 AM 57.0 °F 53.1 °F 87% 29.93 in 10.0 mi South 9.2 mph - N/A   Clear
2:52 AM 55.9 °F 52.0 °F 87% 29.92 in 10.0 mi SSW 5.8 mph - 0.01 in   Clear
3:52 AM 55.9 °F 53.1 °F 90% 29.92 in 10.0 mi SSE 5.8 mph - N/A   Clear
4:52 AM 59.0 °F 52.0 °F 78% 29.91 in 10.0 mi South 8.1 mph - N/A   Clear
5:52 AM 55.9 °F 51.1 °F 84% 29.92 in 10.0 mi SSW 10.4 mph - N/A   Clear
6:52 AM 55.9 °F 54.0 °F 93% 29.93 in 10.0 mi SSW 8.1 mph - 0.01 in   Clear
7:52 AM 59.0 °F 55.0 °F 87% 29.94 in 10.0 mi South 6.9 mph - N/A   Clear
8:52 AM 57.9 °F 54.0 °F 87% 29.96 in 10.0 mi South 5.8 mph - N/A   Clear
9:52 AM 68.0 °F 53.1 °F 59% 29.94 in 10.0 mi SW 6.9 mph - N/A   Clear
10:52 AM 71.1 °F 52.0 °F 51% 29.95 in 10.0 mi SSW 6.9 mph - N/A   Clear
11:52 AM 73.9 °F 53.1 °F 48% 29.93 in 10.0 mi South 8.1 mph - N/A   Clear
12:52 PM 73.9 °F 53.1 °F 48% 29.93 in 10.0 mi SSW 12.7 mph - N/A   Partly Cloudy
1:52 PM 73.0 °F 46.9 °F 39% 29.94 in 10.0 mi SW 15.0 mph - N/A   Scattered Clouds
2:52 PM 75.0 °F 48.0 °F 38% 29.92 in 10.0 mi SSW 8.1 mph - N/A   Clear
3:52 PM 70.0 °F 48.9 °F 47% 29.97 in 10.0 mi South 25.3 mph 32.2 mph N/A   Mostly Cloudy
4:52 PM 68.0 °F 55.9 °F 65% 29.96 in 10.0 mi South 6.9 mph - 0.05 in   Scattered Clouds
5:52 PM 64.0 °F 51.1 °F 63% 29.99 in 8.0 mi SW 11.5 mph 25.3 mph 0.01 in Rain Rain
6:52 PM 66.9 °F 51.1 °F 57% 29.99 in 10.0 mi SSW 5.8 mph - 0.01 in   Overcast
7:52 PM 66.9 °F 51.1 °F 57% 29.97 in 10.0 mi Variable 4.6 mph - N/A   Mostly Cloudy
8:52 PM 64.9 °F 52.0 °F 63% 29.98 in 10.0 mi NW 5.8 mph - 0.00 in Rain Light Rain
9:52 PM 61.0 °F 52.0 °F 72% 29.97 in 10.0 mi Calm Calm - 0.00 in   Clear
10:52 PM 57.9 °F 51.1 °F 78% 29.97 in 10.0 mi West 8.1 mph - N/A   Clear
11:52 PM 55.9 °F 51.1 °F 84% 29.97 in 10.0 mi SSE 4.6 mph - N/A   Clear